Weather Roundup
Issued by NWS Springfield, MO

Home | Current Version | Previous Version | Text Only | Print | Product List | Glossary On
Versions: 1 2 3 4 5 6 7 8 9 10 11 12 13 14 15 16 17 18 19 20 21 22 23 24 25 26 27 28 29 30 31 32 33 34 35 36 37 38 39 40 41 42 43 44 45 46 47 48 49 50
000
NZUS99 KSGF 021507
HRRSGF

HOURLY WEATHER
NATIONAL WEATHER SERVICE SPRINGFIELD MO
1000 AM CDT THU OCT 02 2014

......SGF CWA......

CITY           SKY/WX    TMP DP  RH WIND       PRES   REMARKS
SPRINGFIELD    LGT RAIN  69  65  86 SE14      29.82F
JOPLIN         TSTM      67  66  97 SE8       29.78F
WEST PLAINS    FAIR      74  68  81 S12       29.90F
ROLLA          CLOUDY    69  66  90 S5        29.85R
OSAGE BEACH    CLOUDY    66  63  88 NE3       29.86R
BRANSON        CLOUDY    77  70  78 E7        29.87F

......SURROUNDING SGF CWA......

CITY           SKY/WX    TMP DP  RH WIND       PRES   REMARKS
CHANUTE        TSTM      73  70  90 S17G23    29.76R FOG
PARSONS        TSTM      73  70  90 S8        29.75S
COFFEYVILLE    PTSUNNY   73  71  93 S15       29.73S
EMPORIA        HVY RAIN  65  64  97 NW25G32   29.74R FOG
GROVE OK       RAIN      73  73 100 S6        29.80R
ROGERS AR      LGT RAIN  75  66  73 W30G43    29.88R
SILOAM SPRINGS PTSUNNY   70  63  78 S12       29.83F
HARRISON AR    FAIR      77  70  79 S13       29.87S
NEAR YELLVILLE FAIR      81  66  61 SE7       29.86F

......KANSAS AND MISSOURI......

CITY           SKY/WX    TMP DP  RH WIND       PRES   REMARKS
KANSAS CTY INT TSTM      67  67 100 S7        29.74F VSB 1
DOWNTOWN KC    TSTM      66  63  90 NE8       29.74F FOG
COLUMBIA       LGT RAIN  65  65 100 E10       29.83F
SEDALIA        FAIR      68 N/A N/A SE10      29.79R
ST JOSEPH      LGT RAIN  67  65  93 VRB7      29.71F
ST LOUIS       CLOUDY    71  67  87 SE14      29.87F
SPIRIT OF STL  CLOUDY    69  66  90 SE5       29.86S
KIRKSVILLE     LGT RAIN  65  63  93 S13       29.80F
WICHITA        CLOUDY    64  57  78 N15G22    29.78R
TOPEKA         LGT RAIN  68  68 100 W8        29.73S VSB 1/2
OLATHE         CLOUDY    69  66  90 S3        29.74R

......TENNESSEE......

CITY           SKY/WX    TMP DP  RH WIND       PRES   REMARKS
MEMPHIS        PTSUNNY   79  71  76 S7        29.95F
NASHVILLE      FAIR      79  64  60 S10       30.05F

......ARKANSAS.......

CITY           SKY/WX    TMP DP  RH WIND       PRES   REMARKS
FAYETTEVILLE   CLOUDY    77  71  82 S15G22    29.83F
FT SMITH       CLOUDY    81  72  74 SE6       29.82S
LITTLE ROCK    DRIZZLE   77  72  84 S8        29.91S FOG

......OKLAHOMA.......

CITY           SKY/WX    TMP DP  RH WIND       PRES   REMARKS
TULSA          PTSUNNY   76  71  85 S20G25    29.72S
PONCA CITY     CLOUDY    76  67  73 VRB5      29.73R
MCALESTER      FAIR      81  71  71 S12G22    29.81S
OKLAHOMA CITY  PTSUNNY   76  68  76 S12       29.77R

......IOWA............

CITY           SKY/WX    TMP DP  RH WIND       PRES   REMARKS
DES MOINES     CLOUDY    65  63  93 SE6       29.76F FOG
QUAD CITIES    PTSUNNY   66  64  93 SE8       29.83S

......ILLINOIS........

CITY           SKY/WX    TMP DP  RH WIND       PRES   REMARKS
QUINCY         LGT RAIN  66  63  90 S17G26    29.81F
CHICAGO        CLOUDY    69  62  78 S9        29.87F



USA.gov is the U.S. government's official web portal to all federal, state and local government web resources and services.